Regional Weather Roundup
Issued by NWS Northern Indiana

Home | Current Version | Previous Version | Text Only | Print | Product List | Glossary On
Versions: 1 2 3 4 5 6 7 8 9 10 11 12 13 14 15 16 17 18 19 20 21 22 23 24 25 26 27 28 29 30 31 32 33 34 35 36 37 38 39 40 41 42 43 44 45 46 47 48 49 50
000
ASUS43 KIWX 260410
RWRIWX

KIWX WEATHER ROUNDUP
NATIONAL WEATHER SERVICE NORTHERN INDIANA
1200 AM EDT TUE MAY 26 2015

NOTE: "FAIR" INDICATES FEW OR NO CLOUDS BELOW 12,000 FEET WITH NO
SIGNIFICANT WEATHER AND/OR OBSTRUCTIONS TO VISIBILITY.

* THESE STATIONS ARE NOT UNDER NWS QUALITY CONTROL. THEY ALSO MAY NOT
  REPORT WEATHER SUCH AS PRECIPITATION OR FOG.

INZ001>027-260500-
NORTHERN INDIANA

CITY           SKY/WX    TMP DP  RH WIND       PRES   REMARKS
GARY*          CLEAR     75  63  64 S8        29.98S
VALPARAISO     CLEAR     72  62  71 S9G18     30.01R
MICHIGAN CITY* CLEAR     72  61  68 S9        30.00R
LAPORTE*       CLEAR     73  63  71 S12       30.02R
KNOX*          PTCLDY    70  61  73 S13G18    30.01R
SOUTH BEND     PTCLDY    72  62  71 SW10      30.02R
GOSHEN         CLOUDY    71  62  73 S14       30.02R
MONTICELLO*    PTCLDY    70  66  88 S10       30.04R
LOGANSPORT*    MOCLDY    68  61  77 S12       30.07R
ROCHESTER*     MOCLDY    72  64  78 S9        30.06R
WARSAW*        CLOUDY    70  63  78 CALM      30.04R
ANGOLA*        CLEAR     70  63  78 S6        30.02R
FORT WAYNE     CLOUDY    70  63  78 S14       30.06R
HUNTINGTON*    CLOUDY    69  63  81 S7        30.06R
PERU/GRISSOM   MOCLDY    69  64  84 S13       30.05R
MARION*        CLOUDY    68  61  78 S14       30.08S

$$
INZ028>050-260500-
CENTRAL INDIANA

CITY           SKY/WX    TMP DP  RH WIND       PRES   REMARKS
LAFAYETTE      PTCLDY    69  65  86 S9        30.05R
KOKOMO*        MOCLDY    70  63  78 SW12      30.08R
MUNCIE*        CLOUDY    69  63  81 S8        30.09R
INDIANAPOLIS   CLOUDY    67  63  87 S9        30.07R

$$
MIZ043>046-050>051-056>058-064>065-071>073-077>080-260500-
SOUTHWEST LOWER MICHIGAN

CITY           SKY/WX    TMP DP  RH WIND       PRES   REMARKS
BATTLE CREEK   CLOUDY    68  59  73 S10       30.01R
BENTON HARBOR  CLEAR     70  60  70 S9        29.98R
COLDWATER*     CLOUDY    70  60  72 SW7       30.03R
HILLSDALE*     CLOUDY    71  64  78 SW7       30.04R
HOLLAND        CLEAR     66  58  75 S7        29.97R
GRAND RAPIDS   MOCLDY    65  59  81 S8        29.97S
KALAMAZOO      MOCLDY    67  59  75 S9        30.00R
STURGIS*       CLOUDY    70  63  78 S9        30.02R
THREE RIVERS*  FAIR      69  62  78 SW7       30.02R

$$
OHZ001>008-015>018-024>025-260500-
NORTHWEST OHIO

CITY           SKY/WX    TMP DP  RH WIND       PRES   REMARKS
WAUSEON*       FAIR      70  64  83 S8        30.05R
DEFIANCE       CLOUDY    72  62  71 S9        30.05R
FINDLAY        MOCLDY    71  62  73 S14       30.07R
TOLEDO EXPRESS CLOUDY    72  62  71 SW10      30.05R
TOLEDO METCALF PTCLDY    72  61  68 S13       30.05R
LIMA           MOCLDY    69  62  78 S10       30.09R

$$
AND FOR LAKE MICHIGAN COASTAL AND OPEN LAKE BUOY OBSERVATIONS

STATION/POSITION TEMP    WIND        PRES    VSBY  WAVE
                 AIR SEA DIR/SP/G                  HT/PER
                 (F)     (DEG/KT/KT) (MB)    (MI)  (FT/S)
CALUMET HARBOR    74     180/  8/ 14   N/A
MICHIGAN CITY     73     170/ 13/ 16   N/A
BURNS HARBOR      74     190/ 12/ 17 1015.6S
SAINT JOSEPH      72     170/  8/ 14 1015.9R
SOUTH LAKE BUOY   48 38  190/ 10/ 12 1014.4R         1/ 4
4 MI NW BRIDGMAN  64 55  210/ 10/ 12   N/A           1/ 3
MICHIGAN CITY     65 52  210/ 10/ 12   N/A           1/ 3

$$
&&



USA.gov is the U.S. government's official web portal to all federal, state and local government web resources and services.